Date String (YYYY-MM-DD hh:mm:ss) UTC,Instrument flags,Ambient pressure (hPa),Sample flow (lpm),Bypass flow (lpm),Sample temperature (°C),Ambient temperature (°C),ASC tube jacket temperature (°C),LED temperature (°C),Box temperature (°C),Sample RH (%),Span deviation,Mass concentration (μg/m³),Mass concentration (μg/m³),Mass concentration (μg/m³)
DateTimeUTC,F1_M11,P_M11,Q1_M11,Q2_M11,T1_M11,T2_M11,T3_M11,T4_M11,T5_M11,U1_M11,ZSPAN_M11,X0_M11,X2_M11,X1_M11
2023-02-21 04:00:00,,0817.1,5.00,0.00,22.3,20.6,00.0,31.2,24.0,12.8,0000.0,0001.50,0000.82,0000.51
2023-02-21 04:01:00,,0817.1,5.00,0.00,22.2,20.5,00.0,31.2,24.0,12.9,0000.0,0001.50,0000.80,0000.51
2023-02-21 04:02:00,,0817.1,4.99,0.00,22.2,20.5,00.0,31.2,24.0,12.8,0000.0,0001.50,0000.81,0000.51
2023-02-21 04:03:00,,0817.0,5.00,0.00,22.2,20.5,00.0,31.2,24.0,12.8,0000.0,0001.59,0000.83,0000.51
2023-02-21 04:04:00,,0817.1,4.99,0.00,22.2,20.4,00.0,31.2,23.9,12.7,0000.0,0001.67,0000.85,0000.52
2023-02-21 04:05:00,,0817.2,5.00,0.00,22.2,20.4,00.0,31.2,23.9,12.8,0000.0,0001.60,0000.81,0000.52
2023-02-21 04:06:00,,0817.1,5.00,0.00,22.2,20.5,00.0,31.1,23.9,12.9,0000.0,0001.64,0000.82,0000.52
2023-02-21 04:07:00,,0817.2,4.99,0.00,22.1,20.4,00.0,31.1,23.8,13.0,0000.0,0001.48,0000.80,0000.53
2023-02-21 04:08:00,,0817.3,4.99,0.00,22.1,20.4,00.0,31.1,23.8,12.7,0000.0,0001.42,0000.79,0000.53
2023-02-21 04:09:00,,0817.3,4.99,0.00,22.1,20.3,00.0,31.1,23.8,12.9,0000.0,0001.52,0000.81,0000.53
2023-02-21 04:10:00,,0817.4,5.01,0.00,22.1,20.3,00.0,31.1,23.8,13.1,0000.0,0001.55,0000.82,0000.52
2023-02-21 04:11:00,,0817.3,5.01,0.00,22.1,20.3,00.0,31.1,23.8,13.1,0000.0,0001.46,0000.81,0000.52
2023-02-21 04:12:00,,0817.2,5.00,0.00,22.0,20.2,00.0,31.1,23.8,12.9,0000.0,0001.38,0000.78,0000.52
2023-02-21 04:13:00,,0817.2,4.99,0.00,22.0,20.2,00.0,31.0,23.7,13.0,0000.0,0001.43,0000.76,0000.52
2023-02-21 04:14:00,,0817.3,5.00,0.00,22.0,20.2,00.0,31.0,23.8,13.3,0000.0,0001.46,0000.78,0000.52
2023-02-21 04:15:00,,0817.3,5.00,0.00,22.0,20.2,00.0,31.0,23.7,13.2,0000.0,0001.47,0000.79,0000.52
2023-02-21 04:16:00,,0817.2,4.99,0.00,22.0,20.2,00.0,31.0,23.7,13.1,0000.0,0002.43,0000.84,0000.53
2023-02-21 04:17:00,,0817.2,5.00,0.00,22.0,20.2,00.0,31.0,23.7,12.7,0000.0,0002.43,0000.83,0000.53
2023-02-21 04:18:00,,0817.1,4.99,0.00,21.9,20.2,00.0,30.9,23.7,12.9,0000.0,0002.47,0000.84,0000.52
2023-02-21 04:19:00,,0817.1,5.01,0.00,21.9,20.2,00.0,30.9,23.6,12.9,0000.0,0002.52,0000.86,0000.53
2023-02-21 04:20:00,,0817.2,4.99,0.00,21.9,20.2,00.0,30.9,23.6,12.5,0000.0,0002.42,0000.83,0000.53
2023-02-21 04:21:00,,0817.4,4.98,0.00,21.9,20.8,00.0,30.8,23.8,12.4,0000.0,0002.66,0000.82,0000.52
2023-02-21 04:22:00,,0817.4,4.98,0.00,22.1,22.0,00.0,30.8,24.1,12.6,0000.0,0003.24,0000.82,0000.52
2023-02-21 04:23:00,,0817.5,4.97,0.00,22.2,22.9,00.0,30.8,24.3,12.8,0000.0,0003.27,0000.81,0000.51
2023-02-21 04:24:00,,0817.5,5.01,0.00,22.3,22.5,00.0,30.9,24.3,12.7,0000.0,0003.14,0000.80,0000.50
2023-02-21 04:25:00,,0817.4,4.98,0.00,22.3,22.1,00.0,31.0,24.2,13.0,0000.0,0003.06,0000.78,0000.50
2023-02-21 04:26:00,,0817.4,5.00,0.00,22.3,21.7,00.0,31.0,24.1,12.8,0000.0,0003.01,0000.75,0000.50
2023-02-21 04:27:00,,0817.3,4.98,0.00,22.3,21.5,00.0,31.0,24.1,12.8,0000.0,0002.75,0000.72,0000.49
2023-02-21 04:28:00,,0817.4,5.00,0.00,22.2,21.3,00.0,31.0,24.0,12.9,0000.0,0002.48,0000.72,0000.49
2023-02-21 04:29:00,,0817.4,4.98,0.00,22.2,21.1,00.0,31.0,24.0,12.9,0000.0,0002.67,0000.73,0000.50
2023-02-21 04:30:00,,0817.5,5.01,0.00,22.2,21.0,00.0,31.1,23.9,12.8,0000.0,0002.63,0000.71,0000.49
2023-02-21 04:31:00,,0817.5,4.99,0.00,22.2,20.9,00.0,31.1,23.9,13.0,0000.0,0002.67,0000.72,0000.50
2023-02-21 04:32:00,,0817.4,5.02,0.00,22.2,20.8,00.0,31.1,23.8,13.1,0000.0,0002.47,0000.74,0000.50
2023-02-21 04:33:00,,0817.5,5.00,0.00,22.2,20.7,00.0,31.1,23.8,13.0,0000.0,0001.98,0000.75,0000.51
2023-02-21 04:34:00,,0817.4,4.99,0.00,22.1,20.6,00.0,31.1,23.8,13.1,0000.0,0001.85,0000.76,0000.51
2023-02-21 04:35:00,,0817.3,4.99,0.00,22.1,20.6,00.0,31.1,23.8,13.0,0000.0,0001.86,0000.76,0000.51
2023-02-21 04:36:00,,0817.5,5.00,0.00,22.1,20.5,00.0,31.1,23.8,12.9,0000.0,0001.88,0000.78,0000.51
2023-02-21 04:37:00,,0817.7,5.01,0.00,22.1,20.5,00.0,31.0,23.7,12.8,0000.0,0001.86,0000.78,0000.51
2023-02-21 04:38:00,,0817.6,5.02,0.00,22.1,20.4,00.0,31.0,23.7,12.8,0000.0,0001.52,0000.79,0000.50
2023-02-21 04:39:00,,0817.7,5.00,0.00,22.0,20.4,00.0,31.0,23.7,13.0,0000.0,0001.55,0000.79,0000.50
2023-02-21 04:40:00,,0817.6,5.01,0.00,22.0,20.3,00.0,31.0,23.6,13.0,0000.0,0001.40,0000.80,0000.50
2023-02-21 04:41:00,,0817.6,4.99,0.00,22.0,20.2,00.0,31.0,23.6,13.1,0000.0,0001.36,0000.80,0000.50
2023-02-21 04:42:00,,0817.6,5.00,0.00,21.9,20.0,00.0,31.0,23.5,13.2,0000.0,0001.35,0000.79,0000.50
2023-02-21 04:43:00,,0817.7,4.99,0.00,21.9,20.0,00.0,30.9,23.5,13.2,0000.0,0001.29,0000.78,0000.50
2023-02-21 04:44:00,,0817.6,4.99,0.00,21.9,20.9,00.0,30.9,23.7,13.2,0000.0,0001.32,0000.78,0000.49
2023-02-21 04:45:00,,0817.8,5.00,0.00,22.0,22.1,00.0,30.8,24.0,13.1,0000.0,0001.42,0000.78,0000.49
2023-02-21 04:46:00,,0817.7,5.01,0.00,22.2,22.8,00.0,30.8,24.2,13.1,0000.0,0001.48,0000.78,0000.49
2023-02-21 04:47:00,,0817.6,5.02,0.00,22.2,22.2,00.0,30.9,24.1,13.1,0000.0,0001.50,0000.78,0000.50
2023-02-21 04:48:00,,0817.6,4.99,0.00,22.2,21.7,00.0,31.0,24.0,13.2,0000.0,0001.52,0000.78,0000.49
2023-02-21 04:49:00,,0817.6,5.00,0.00,22.1,21.3,00.0,31.0,23.9,13.2,0000.0,0001.49,0000.77,0000.51
2023-02-21 04:50:00,,0817.6,5.00,0.00,22.1,21.0,00.0,31.0,23.8,13.2,0000.0,0001.44,0000.76,0000.51
2023-02-21 04:51:00,,0817.5,4.99,0.00,22.1,20.8,00.0,31.0,23.8,13.3,0000.0,0001.41,0000.76,0000.51
2023-02-21 04:52:00,,0817.5,5.00,0.00,22.1,20.7,00.0,31.0,23.8,13.4,0000.0,0001.42,0000.76,0000.51
2023-02-21 04:53:00,,0817.4,5.00,0.00,22.1,20.6,00.0,31.0,23.7,13.4,0000.0,0001.48,0000.79,0000.52
2023-02-21 04:54:00,,0817.3,5.00,0.00,22.0,20.4,00.0,31.0,23.7,13.5,0000.0,0001.50,0000.81,0000.54
2023-02-21 04:55:00,,0817.4,5.00,0.00,22.0,20.4,00.0,31.0,23.7,13.5,0000.0,0001.54,0000.82,0000.55
2023-02-21 04:56:00,,0817.4,4.99,0.00,22.0,20.3,00.0,31.0,23.7,13.5,0000.0,0001.58,0000.85,0000.55
2023-02-21 04:57:00,,0817.4,5.00,0.00,22.0,20.3,00.0,31.0,23.7,13.6,0000.0,0001.60,0000.87,0000.57
2023-02-21 04:58:00,,0817.4,5.01,0.00,22.0,20.3,00.0,31.0,23.6,13.6,0000.0,0001.62,0000.90,0000.59
2023-02-21 04:59:00,,0817.2,5.00,0.00,21.9,20.3,00.0,30.9,23.6,13.6,0000.0,0001.61,0000.90,0000.59
